"Period start","avg(HW err(1)/warn(2) (#))","avg(Visibility (m))","avg(Weather code (#))","avg(Precip intensity (mm/h))","min(HW err(1)/warn(2) (#))","max(HW err(1)/warn(2) (#))","std(HW err(1)/warn(2) (#))","med(HW err(1)/warn(2) (#))","min(Visibility (m))","max(Visibility (m))","std(Visibility (m))","med(Visibility (m))","min(Weather code (#))","max(Weather code (#))","std(Weather code (#))","med(Weather code (#))","min(Precip intensity (mm/h))","max(Precip intensity (mm/h))","std(Precip intensity (mm/h))","med(Precip intensity (mm/h))"
2014-10-19 00:00:00,2,48458,0,0.00,2,2,0,2,42146,50000,2292,49212,0,0,0,0,0.00,0.00,0.00,0.00
2014-10-19 00:10:00,2,47517,0,0.00,2,2,0,2,40271,50000,3536,48836,0,0,0,0,0.00,0.00,0.00,0.00
2014-10-19 00:20:00,2,45879,0,0.00,2,2,0,2,36070,50000,5134,49626,0,0,0,0,0.00,0.00,0.00,0.00
2014-10-19 00:30:00,2,46697,0,0.00,2,2,0,2,36543,50000,4849,48765,0,0,0,0,0.00,0.00,0.00,0.00
2014-10-19 00:40:00,2,47572,0,0.00,2,2,0,2,42932,50000,2435,47618,0,0,0,0,0.00,0.00,0.00,0.00
2014-10-19 00:50:00,2,47587,0,0.00,2,2,0,2,43749,50000,2315,48202,0,0,0,0,0.00,0.00,0.00,0.00
2014-10-19 01:00:00,2,43862,0,0.00,2,2,0,2,38629,50000,4561,42400,0,0,0,0,0.00,0.00,0.00,0.00
2014-10-19 01:10:00,2,47819,0,0.00,2,2,0,2,37570,50000,3697,49620,0,0,0,0,0.00,0.00,0.00,0.00
2014-10-19 01:20:00,2,47455,0,0.00,2,2,0,2,41960,50000,2630,47642,0,0,0,0,0.00,0.00,0.00,0.00
2014-10-19 01:30:00,2,40046,0,0.00,2,2,0,2,28326,50000,5985,39478,0,0,0,0,0.00,0.00,0.00,0.00
2014-10-19 01:40:00,2,44494,0,0.00,2,2,0,2,38781,49282,2986,44312,0,0,0,0,0.00,0.00,0.00,0.00
2014-10-19 01:50:00,2,49417,0,0.00,2,2,0,2,47987,50000,717,49904,0,0,0,0,0.00,0.00,0.00,0.00
2014-10-19 02:00:00,2,47364,0,0.00,2,2,0,2,43063,50000,2716,48177,0,0,0,0,0.00,0.00,0.00,0.00
2014-10-19 02:10:00,2,44791,0,0.00,2,2,0,2,34332,50000,5568,47056,0,0,0,0,0.00,0.00,0.00,0.00
2014-10-19 02:20:00,2,43104,0,0.00,2,2,0,2,32432,50000,6424,45196,0,0,0,0,0.00,0.00,0.00,0.00
2014-10-19 02:30:00,2,49171,0,0.00,2,2,0,2,46934,50000,1163,50000,0,0,0,0,0.00,0.00,0.00,0.00
2014-10-19 02:40:00,2,43453,0,0.00,2,2,0,2,30503,50000,7187,46538,0,0,0,0,0.00,0.00,0.00,0.00
2014-10-19 02:50:00,2,39680,0,0.00,2,2,0,2,33359,47870,4673,40399,0,0,0,0,0.00,0.00,0.00,0.00
2014-10-19 03:00:00,2,43310,0,0.00,2,2,0,2,36582,49312,4406,43542,0,0,0,0,0.00,0.00,0.00,0.00
2014-10-19 03:10:00,2,37429,0,0.00,2,2,0,2,31430,44801,4590,36854,0,0,0,0,0.00,0.00,0.00,0.00
2014-10-19 03:20:00,2,46616,0,0.00,2,2,0,2,36437,50000,4370,48558,0,0,0,0,0.00,0.00,0.00,0.00
2014-10-19 03:30:00,2,37281,0,0.00,2,2,0,2,29751,46628,5148,36773,0,0,0,0,0.00,0.00,0.00,0.00
2014-10-19 03:40:00,2,43272,0,0.00,2,2,0,2,37613,50000,4632,43228,0,0,0,0,0.00,0.00,0.00,0.00
2014-10-19 03:50:00,2,47391,0,0.00,2,2,0,2,43317,50000,2285,47884,0,0,0,0,0.00,0.00,0.00,0.00
2014-10-19 04:00:00,2,47048,0,0.00,2,2,0,2,35240,50000,4299,48752,0,0,0,0,0.00,0.00,0.00,0.00
2014-10-19 04:10:00,2,41060,0,0.00,2,2,0,2,28576,47402,5754,43420,0,0,0,0,0.00,0.00,0.00,0.00
2014-10-19 04:20:00,2,45576,0,0.00,2,2,0,2,32385,50000,5171,47298,0,0,0,0,0.00,0.00,0.00,0.00
2014-10-19 04:30:00,2,46237,0,0.00,2,2,0,2,41239,50000,3545,46160,0,0,0,0,0.00,0.00,0.00,0.00
2014-10-19 04:40:00,2,40220,0,0.00,2,2,0,2,29961,46582,4783,41353,0,0,0,0,0.00,0.00,0.00,0.00
2014-10-19 04:50:00,2,39963,0,0.00,2,2,0,2,29866,47980,4524,40383,0,0,0,0,0.00,0.00,0.00,0.00
2014-10-19 05:00:00,2,43095,0,0.00,2,2,0,2,33710,48327,5011,44012,0,0,0,0,0.00,0.00,0.00,0.00
2014-10-19 05:10:00,2,48723,0,0.00,2,2,0,2,43487,50000,2090,50000,0,0,0,0,0.00,0.00,0.00,0.00
2014-10-19 05:20:00,2,42442,0,0.00,2,2,0,2,34686,50000,4948,42024,0,0,0,0,0.00,0.00,0.00,0.00
2014-10-19 05:30:00,2,42804,0,0.00,2,2,0,2,36207,49339,4421,43660,0,0,0,0,0.00,0.00,0.00,0.00
2014-10-19 05:40:00,2,40976,0,0.00,2,2,0,2,32099,46193,5250,43316,0,0,0,0,0.00,0.00,0.00,0.00
2014-10-19 05:50:00,2,42816,0,0.00,2,2,0,2,33443,50000,5812,41624,0,0,0,0,0.00,0.00,0.00,0.00
2014-10-19 06:00:00,2,41356,0,0.00,2,2,0,2,32357,50000,5349,40585,0,0,0,0,0.00,0.00,0.00,0.00
2014-10-19 06:10:00,2,42155,0,0.00,2,2,0,2,35015,49103,5155,41954,0,0,0,0,0.00,0.00,0.00,0.00
2014-10-19 06:20:00,2,38249,0,0.00,2,2,0,2,31501,41803,3446,39908,0,0,0,0,0.00,0.00,0.00,0.00
2014-10-19 06:30:00,2,33552,0,0.00,2,2,0,2,25733,41158,5527,33884,0,0,0,0,0.00,0.00,0.00,0.00
2014-10-19 06:40:00,2,36621,0,0.00,2,2,0,2,29057,41877,4057,37067,0,0,0,0,0.00,0.00,0.00,0.00
2014-10-19 06:50:00,2,39145,0,0.00,2,2,0,2,28393,44656,4946,40546,0,0,0,0,0.00,0.00,0.00,0.00
2014-10-19 07:00:00,2,42210,0,0.00,2,2,0,2,37330,49883,3855,41092,0,0,0,0,0.00,0.00,0.00,0.00
2014-10-19 07:10:00,2,34432,0,0.00,2,2,0,2,30214,41840,3880,32666,0,0,0,0,0.00,0.00,0.00,0.00
2014-10-19 07:20:00,2,19886,1,0.00,2,2,0,2,1007,37536,14422,26222,0,10,3,0,0.00,0.00,0.00,0.00
2014-10-19 07:30:00,2,1102,18,0.00,2,2,0,2,682,2109,408,931,10,30,10,10,0.00,0.00,0.00,0.00
2014-10-19 07:40:00,2,8387,24,0.00,2,2,0,2,1044,33138,9435,5569,20,30,5,20,0.00,0.00,0.00,0.00
2014-10-19 07:50:00,2,33027,30,0.02,2,2,0,2,23977,43954,5431,33298,20,71,20,20,0.00,0.20,0.06,0.00
2014-10-19 08:00:00,2,22927,71,0.06,2,2,0,2,13752,30569,4752,22502,71,71,0,71,0.00,0.25,0.07,0.05
2014-10-19 08:10:00,2,20930,71,0.11,2,2,0,2,15159,26375,3318,20701,71,71,0,71,0.00,0.35,0.10,0.05
2014-10-19 08:20:00,2,15620,71,0.25,2,2,0,2,10917,26312,4403,14045,71,71,0,71,0.10,0.45,0.12,0.25
2014-10-19 08:30:00,2,18054,71,0.16,2,2,0,2,12372,24325,3450,17412,71,71,0,71,0.05,0.35,0.09,0.12
2014-10-19 08:40:00,2,16088,71,0.17,2,2,0,2,10815,21505,3420,15733,71,71,0,71,0.05,0.50,0.14,0.12
2014-10-19 08:50:00,2,20676,73,0.06,2,2,0,2,14841,30041,5347,18150,71,77,3,71,0.00,0.20,0.05,0.05
2014-10-19 09:00:00,2,15986,72,0.06,2,2,0,2,11961,22719,3013,15486,71,77,2,71,0.00,0.30,0.08,0.05
2014-10-19 09:10:00,2,28102,76,0.01,2,2,0,2,20777,34073,4265,29082,71,78,3,78,0.00,0.10,0.03,0.00
2014-10-19 09:20:00,2,21768,72,0.07,2,2,0,2,10814,29864,5426,22558,71,78,3,71,0.00,0.20,0.07,0.05
2014-10-19 09:30:00,2,30787,72,0.02,2,2,0,2,23665,38257,4796,29090,71,77,2,71,0.00,0.05,0.02,0.00
2014-10-19 09:40:00,2,32010,78,0.00,2,2,0,2,24737,45813,6061,31928,77,78,0,78,0.00,0.00,0.00,0.00
2014-10-19 09:50:00,2,33597,78,0.00,2,2,0,2,24436,41994,5263,32560,78,78,0,78,0.00,0.00,0.00,0.00
2014-10-19 10:00:00,2,44347,78,0.00,2,2,0,2,37904,48467,3235,43910,78,78,0,78,0.00,0.00,0.00,0.00
2014-10-19 10:10:00,2,40060,78,0.00,2,2,0,2,29573,46403,4798,39686,78,78,0,78,0.00,0.00,0.00,0.00
2014-10-19 10:20:00,2,38207,74,0.01,2,2,0,2,31471,47393,4412,38046,71,78,3,74,0.00,0.10,0.03,0.00
2014-10-19 10:30:00,2,46568,16,0.00,2,2,0,2,43215,50000,2020,46466,0,78,31,0,0.00,0.00,0.00,0.00
2014-10-19 10:40:00,2,47894,0,0.00,2,2,0,2,43131,50000,2384,48706,0,0,0,0,0.00,0.00,0.00,0.00
2014-10-19 10:50:00,2,49151,0,0.00,2,2,0,2,45275,50000,1493,50000,0,0,0,0,0.00,0.00,0.00,0.00
2014-10-19 11:00:00,2,47731,0,0.00,2,2,0,2,44316,50000,2122,48061,0,0,0,0,0.00,0.00,0.00,0.00
2014-10-19 11:10:00,2,39588,0,0.00,2,2,0,2,33895,47652,4456,39101,0,0,0,0,0.00,0.00,0.00,0.00
2014-10-19 11:20:00,2,39264,0,0.00,2,2,0,2,32285,46445,4373,39954,0,0,0,0,0.00,0.00,0.00,0.00
2014-10-19 11:30:00,2,39174,0,0.00,2,2,0,2,26959,47708,7556,40034,0,0,0,0,0.00,0.00,0.00,0.00
2014-10-19 11:40:00,2,41245,21,0.00,2,2,0,2,31648,45772,4647,43159,0,71,33,0,0.00,0.00,0.00,0.00
2014-10-19 11:50:00,2,45921,0,0.00,2,2,0,2,43277,49100,1966,46072,0,0,0,0,0.00,0.00,0.00,0.00
2014-10-19 12:00:00,2,45964,0,0.00,2,2,0,2,43129,49430,2058,46064,0,0,0,0,0.00,0.00,0.00,0.00
2014-10-19 12:10:00,2,44746,0,0.00,2,2,0,2,40146,50000,3604,43732,0,0,0,0,0.00,0.00,0.00,0.00
2014-10-19 12:20:00,2,46385,0,0.00,2,2,0,2,40859,50000,2858,46711,0,0,0,0,0.00,0.00,0.00,0.00
2014-10-19 12:30:00,2,47174,0,0.00,2,2,0,2,30088,50000,6127,50000,0,0,0,0,0.00,0.00,0.00,0.00
2014-10-19 12:40:00,2,46988,0,0.00,2,2,0,2,33764,50000,4940,49262,0,0,0,0,0.00,0.00,0.00,0.00
2014-10-19 12:50:00,2,48368,0,0.00,2,2,0,2,43725,50000,2179,49087,0,0,0,0,0.00,0.00,0.00,0.00
2014-10-19 13:00:00,2,47601,0,0.00,2,2,0,2,42235,50000,2777,49140,0,0,0,0,0.00,0.00,0.00,0.00
2014-10-19 13:10:00,2,48250,0,0.00,2,2,0,2,42656,50000,2569,49511,0,0,0,0,0.00,0.00,0.00,0.00
2014-10-19 13:20:00,2,47236,0,0.00,2,2,0,2,36752,50000,4346,50000,0,0,0,0,0.00,0.00,0.00,0.00
2014-10-19 13:30:00,2,49514,0,0.00,2,2,0,2,46465,50000,1055,50000,0,0,0,0,0.00,0.00,0.00,0.00
2014-10-19 13:40:00,2,49695,0,0.00,2,2,0,2,46952,50000,914,50000,0,0,0,0,0.00,0.00,0.00,0.00
2014-10-19 13:50:00,2,48146,0,0.00,2,2,0,2,41369,50000,2896,50000,0,0,0,0,0.00,0.00,0.00,0.00
2014-10-19 14:00:00,2,50000,0,0.00,2,2,0,2,50000,50000,0,50000,0,0,0,0,0.00,0.00,0.00,0.00
2014-10-19 14:10:00,2,49562,0,0.00,2,2,0,2,45620,50000,1314,50000,0,0,0,0,0.00,0.00,0.00,0.00
2014-10-19 14:20:00,2,46235,0,0.00,2,2,0,2,30775,50000,7306,50000,0,0,0,0,0.00,0.00,0.00,0.00
2014-10-19 14:30:00,2,49130,0,0.00,2,2,0,2,44617,50000,1783,50000,0,0,0,0,0.00,0.00,0.00,0.00
2014-10-19 14:40:00,2,49581,0,0.00,2,2,0,2,47161,50000,901,50000,0,0,0,0,0.00,0.00,0.00,0.00
2014-10-19 14:50:00,2,47858,0,0.00,2,2,0,2,39571,50000,3921,49962,0,0,0,0,0.00,0.00,0.00,0.00
2014-10-19 15:00:00,2,49556,30,0.00,2,2,0,2,47395,50000,905,50000,0,78,37,0,0.00,0.00,0.00,0.00
2014-10-19 15:10:00,2,44517,0,0.00,2,2,0,2,36724,50000,4896,46820,0,0,0,0,0.00,0.00,0.00,0.00
2014-10-19 15:20:00,2,48673,0,0.00,2,2,0,2,44982,50000,1742,49758,0,0,0,0,0.00,0.00,0.00,0.00
2014-10-19 15:30:00,2,49259,0,0.00,2,2,0,2,45258,50000,1420,50000,0,0,0,0,0.00,0.00,0.00,0.00
2014-10-19 15:40:00,2,47753,0,0.00,2,2,0,2,39324,50000,3641,49614,0,0,0,0,0.00,0.00,0.00,0.00
2014-10-19 15:50:00,2,49926,0,0.00,2,2,0,2,49258,50000,223,50000,0,0,0,0,0.00,0.00,0.00,0.00
2014-10-19 16:00:00,2,47580,0,0.00,2,2,0,2,34188,50000,5014,50000,0,0,0,0,0.00,0.00,0.00,0.00
2014-10-19 16:10:00,2,49754,0,0.00,2,2,0,2,48497,50000,450,50000,0,0,0,0,0.00,0.00,0.00,0.00
2014-10-19 16:20:00,2,46142,14,0.01,2,2,0,2,40485,50000,3647,46688,0,71,28,0,0.00,0.05,0.02,0.00
2014-10-19 16:30:00,2,39585,71,0.04,2,2,0,2,24289,50000,8803,42864,71,71,0,71,0.00,0.15,0.04,0.05
2014-10-19 16:40:00,2,45395,67,0.00,2,2,0,2,36267,50000,4776,48074,0,78,23,74,0.00,0.00,0.00,0.00
2014-10-19 16:50:00,2,41177,0,0.00,2,2,0,2,16836,50000,10464,44376,0,0,0,0,0.00,0.00,0.00,0.00
2014-10-19 17:00:00,2,40649,57,0.02,2,2,0,2,28764,50000,6379,38798,0,71,28,71,0.00,0.05,0.02,0.00
2014-10-19 17:10:00,2,31328,71,0.08,2,2,0,2,13991,48400,11244,28000,71,71,0,71,0.00,0.30,0.10,0.05
2014-10-19 17:20:00,2,30310,50,0.03,2,2,0,2,12766,43624,10002,32467,0,71,33,71,0.00,0.20,0.06,0.00
2014-10-19 17:30:00,2,21325,71,0.12,2,2,0,2,10574,28394,6124,23166,71,71,0,71,0.00,0.50,0.15,0.08
2014-10-19 17:40:00,2,24468,71,0.02,2,2,0,2,19366,29121,2343,24584,71,71,0,71,0.00,0.05,0.02,0.00
2014-10-19 17:50:00,2,36932,75,0.02,2,2,0,2,23424,47293,7271,38168,71,78,3,77,0.00,0.05,0.02,0.00
2014-10-19 18:00:00,2,45431,44,0.00,2,2,0,2,32759,50000,6191,48884,0,78,36,71,0.00,0.00,0.00,0.00
2014-10-19 18:10:00,2,50000,0,0.00,2,2,0,2,50000,50000,0,50000,0,0,0,0,0.00,0.00,0.00,0.00
2014-10-19 18:20:00,2,49986,0,0.00,2,2,0,2,49861,50000,42,50000,0,0,0,0,0.00,0.00,0.00,0.00
2014-10-19 18:30:00,2,48738,0,0.00,2,2,0,2,42848,50000,2352,50000,0,0,0,0,0.00,0.00,0.00,0.00
2014-10-19 18:40:00,2,49588,0,0.00,2,2,0,2,45875,50000,1238,50000,0,0,0,0,0.00,0.00,0.00,0.00
2014-10-19 18:50:00,2,49868,0,0.00,2,2,0,2,48677,50000,397,50000,0,0,0,0,0.00,0.00,0.00,0.00
2014-10-19 19:00:00,2,49990,0,0.00,2,2,0,2,49898,50000,31,50000,0,0,0,0,0.00,0.00,0.00,0.00
2014-10-19 19:10:00,2,49956,0,0.00,2,2,0,2,49563,50000,131,50000,0,0,0,0,0.00,0.00,0.00,0.00
2014-10-19 19:20:00,2,50000,0,0.00,2,2,0,2,50000,50000,0,50000,0,0,0,0,0.00,0.00,0.00,0.00
2014-10-19 19:30:00,2,49568,0,0.00,2,2,0,2,47124,50000,877,50000,0,0,0,0,0.00,0.00,0.00,0.00
2014-10-19 19:40:00,2,48825,0,0.00,2,2,0,2,43723,50000,2065,50000,0,0,0,0,0.00,0.00,0.00,0.00
2014-10-19 19:50:00,2,49861,0,0.00,2,2,0,2,48723,50000,381,50000,0,0,0,0,0.00,0.00,0.00,0.00
2014-10-19 20:00:00,2,50000,0,0.00,2,2,0,2,50000,50000,0,50000,0,0,0,0,0.00,0.00,0.00,0.00
2014-10-19 20:10:00,2,50000,0,0.00,2,2,0,2,50000,50000,0,50000,0,0,0,0,0.00,0.00,0.00,0.00
2014-10-19 20:20:00,2,49392,0,0.00,2,2,0,2,45429,50000,1387,50000,0,0,0,0,0.00,0.00,0.00,0.00
2014-10-19 20:30:00,2,49349,0,0.00,2,2,0,2,46616,50000,1104,50000,0,0,0,0,0.00,0.00,0.00,0.00
2014-10-19 20:40:00,2,49565,0,0.00,2,2,0,2,46000,50000,1193,50000,0,0,0,0,0.00,0.00,0.00,0.00
2014-10-19 20:50:00,2,48152,0,0.00,2,2,0,2,44449,50000,2022,49023,0,0,0,0,0.00,0.00,0.00,0.00
2014-10-19 21:00:00,2,49579,0,0.00,2,2,0,2,47573,50000,784,50000,0,0,0,0,0.00,0.00,0.00,0.00
2014-10-19 21:10:00,2,47283,0,0.00,2,2,0,2,31065,50000,5538,49361,0,0,0,0,0.00,0.00,0.00,0.00
2014-10-19 21:20:00,2,34346,0,0.00,2,2,0,2,29682,39186,3122,34199,0,0,0,0,0.00,0.00,0.00,0.00
2014-10-19 21:30:00,2,43699,0,0.00,2,2,0,2,37052,50000,3921,44722,0,0,0,0,0.00,0.00,0.00,0.00
2014-10-19 21:40:00,2,31732,0,0.00,2,2,0,2,22744,44503,8144,28371,0,0,0,0,0.00,0.00,0.00,0.00
2014-10-19 21:50:00,2,17222,0,0.00,2,2,0,2,12990,25244,3986,16440,0,0,0,0,0.00,0.00,0.00,0.00
2014-10-19 22:00:00,2,23107,16,0.01,2,2,0,2,16017,29232,3714,23253,0,40,20,0,0.00,0.05,0.02,0.00
2014-10-19 22:10:00,2,12848,29,0.01,2,2,0,2,8327,22907,4588,10662,0,71,31,20,0.00,0.05,0.02,0.00
2014-10-19 22:20:00,2,9589,71,0.01,2,2,0,2,7333,12103,1604,9542,71,71,0,71,0.00,0.05,0.02,0.00
2014-10-19 22:30:00,2,18606,71,0.06,2,2,0,2,12325,28402,4329,18836,71,71,0,71,0.00,0.20,0.07,0.03
2014-10-19 22:40:00,2,25105,71,0.06,2,2,0,2,15424,40163,8043,23050,71,71,0,71,0.00,0.35,0.10,0.03
2014-10-19 22:50:00,2,14853,72,0.03,2,2,0,2,7900,35685,8898,9925,71,77,2,71,0.00,0.15,0.05,0.00
2014-10-19 23:00:00,2,5996,75,0.01,2,2,0,2,5197,6888,550,5940,71,77,3,77,0.00,0.05,0.02,0.00
2014-10-19 23:10:00,2,8832,76,0.03,2,2,0,2,7287,10776,1313,8922,71,77,2,77,0.00,0.15,0.05,0.00
2014-10-19 23:20:00,2,9596,75,0.00,2,2,0,2,7325,11958,1555,10342,71,77,3,77,0.00,0.00,0.00,0.00
2014-10-19 23:30:00,2,6313,75,0.13,2,2,0,2,2986,9863,2253,6652,71,77,3,77,0.00,0.45,0.17,0.05
2014-10-19 23:40:00,2,8259,75,0.20,2,2,0,2,2537,16100,5262,6624,71,77,3,77,0.00,0.80,0.24,0.08
2014-10-19 23:50:00,2,6600,75,0.04,2,2,0,2,4137,12569,2461,5418,71,77,3,77,0.00,0.10,0.03,0.05
